Location: Unspecified
(0.0000°N, 0.0000°E)
Time: 11:15:54
(UTC+00:00)

A-11 Canister half - Pass Details

Date: 01 August 2021
Orbit: 1515 x 1685 km, 47.2° (Epoch: 27 September)

Event Time Altitude Azimuth Distance (km) Brightness Sun altitude
Rises 03:47:27 0° 287° (WNW) 4,891 - -32.8°
Reaches altitude 10° 03:51:48 10° 271° (W) 3,881 - -31.8°
Maximum altitude 03:58:28 20° 228° (SW) 3,106 - -30.3°
Exits shadow 04:04:53 10° 185° (S) 3,762 10.8 -28.8°
Drops below altitude 10° 04:05:03 10° 184° (S) 3,793 10.8 -28.7°
Sets 04:09:18 0° 167° (SSE) 4,748 11.5 -27.7°
